Regional Weather Roundup
Issued by NWS Upton, NY

Current Version | Previous Version | Text Only | Print | Product List | Glossary On
Versions: 1 2 3 4 5 6 7 8 9 10 11 12 13 14 15 16 17 18 19 20 21 22 23 24 25 26 27 28
000
ASUS41 KOKX 190905
RWROKX

REGIONAL WEATHER ROUNDUP
NATIONAL WEATHER SERVICE NEW YORK NY
500 AM EDT SAT APR 19 2014

NOTE: "FAIR" INDICATES FEW OR NO CLOUDS BELOW 12,000 FEET WITH NO
SIGNIFICANT WEATHER AND/OR OBSTRUCTIONS TO VISIBILITY.

NYZ071-072-176-178-NJZ106-104-191000-
NEW YORK CITY METRO AREA


CITY           SKY/WX    TMP DP  RH WIND       PRES   REMARKS
CENTRAL PARK   MOCLDY    43  34  70 W3        30.25S
LAGUARDIA APRT MOCLDY    43  33  68 SW7       30.23S
KENNEDY INTL   MOCLDY    42  36  79 SW10      30.25S
NEWARK/LIBERTY MOCLDY    39  34  82 SW6       30.24R WCI  35
TETERBORO      MOCLDY    42  33  70 S5        30.23S
$$

NYZ177-179-078>081-191000-
LONG ISLAND NEW YORK

CITY           SKY/WX    TMP DP  RH WIND       PRES   REMARKS
FARMINGDALE    MOCLDY    38  35  89 W6        30.23F WCI  33
ISLIP          MOCLDY    38  34  85 SW5       30.21F WCI  34
SHIRLEY        MOCLDY    35  34  96 CALM      30.23F
WESTHAMPTON    MOCLDY    30  26  85 CALM      30.24F
MONTAUK POINT    N/A     41  37  86 W6        30.23F
$$

NYZ052-065-067-191000-
HUDSON VALLEY

CITY           SKY/WX    TMP DP  RH WIND       PRES   REMARKS
WHITE PLAINS   MOCLDY    36  31  82 CALM      30.20F
NEWBURGH       PTCLDY    43  32  65 SW7       30.22S
MONTGOMERY     PTCLDY    37  30  75 SW6       30.20F WCI  32
POUGHKEEPSIE   PTCLDY    41  31  67 S3        30.20S
ALBANY         PTCLDY    36  28  73 S5        30.22S WCI  32
$$

NJZ001-105-106-008-010-013-015-019>022-104-191000-
NEW JERSEY

CITY           SKY/WX    TMP DP  RH WIND       PRES   REMARKS
NEWARK/LIBERTY MOCLDY    39  34  82 SW6       30.24R WCI  35
TETERBORO      MOCLDY    42  33  70 S5        30.23S
CALDWELL       MOCLDY    39  31  72 CALM      30.23S
MORRISTOWN     MOCLDY    39  36  87 CALM      30.23S
SOMERVILLE     MOCLDY    34  32  92 CALM      30.23S
LINDEN         FAIR      40  35  81 CALM      30.26S
SUSSEX         MOCLDY    36  30  79 CALM      30.22F
ANDOVER          N/A     38  35  89 CALM      30.22F
TRENTON        MOCLDY    39  35  86 W5        30.24S
MILLVILLE      CLOUDY    36  35  96 CALM      30.25F
ATLANTIC CITY  CLOUDY    36  34  92 NE3       30.26S
WRIGHTSTOWN    CLOUDY    37  35  94 W5        30.22F WCI  33
TOMS RIVER     CLOUDY    36  32  87 CALM      30.25F
BELMAR         CLOUDY    37  30  75 SW7       30.24S WCI  32
$$

PAZ047>061-062-071-191000-
EASTERN PENNSYLVANIA

CITY           SKY/WX    TMP DP  RH WIND       PRES   REMARKS
PHILADELPHIA   CLOUDY    43  37  79 SW3       30.25F
ALLENTOWN      MOCLDY    35  31  85 SW3       30.24S
SCRANTON       MOCLDY    38  32  79 VRB5      30.24S WCI  34
$$

CTZ002-004>006-009-010-012-RIZ004-006-007-MAZ004-011-015-191000-
SOUTHERN NEW ENGLAND
 IN CT

CITY           SKY/WX    TMP DP  RH WIND       PRES   REMARKS
BRADLEY INTL   MOCLDY    38  32  79 S6        30.20S WCI  33
HARTFORD       PTCLDY    39  34  82 S6        30.22S WCI  35
DANBURY        MOCLDY    36  32  85 SW3       30.22S
WTRBRY/OXFORD  PTCLDY    36  28  75 CALM      30.23S
BRIDGEPORT     MOCLDY    41  37  86 W6        30.22S
MERIDEN        PTCLDY    36  33  89 CALM      30.22S
NEW HAVEN      MOCLDY    42  36  79 W3        30.22F
CHESTER        FAIR      37  36  93 CALM      30.22S
GROTON         MOCLDY    39  37  92 W7        30.22S WCI  34
WILLIMANTIC    PTCLDY    36  32  85 CALM      30.22S

 IN RI

CITY           SKY/WX    TMP DP  RH WIND       PRES   REMARKS
PROVIDENCE     MOCLDY    39  34  82 W3        30.21S
BLOCK ISLAND   MOCLDY    39  36  87 W8        30.21S WCI  34
WESTERLY       MOCLDY    39  37  92 NW3       30.23R

 IN MA

CITY           SKY/WX    TMP DP  RH WIND       PRES   REMARKS
BOSTON         MOCLDY    39  32  76 SW10      30.18F WCI  32
WORCESTER      CLEAR     35  28  75 W9        30.16S WCI  28
WESTFIELD      PTCLDY    32  29  88 CALM      30.20R
PROVINCETOWN     N/A     39  36  87 MISG      30.20S
NANTUCKET      MOCLDY    39  34  82 NW7       30.21S WCI  34
$$

ANZ330-335-338-340-345-350-353-355-191000-
COASTAL MARINE OBSERVATIONS


STATION/POSITION TIME  SKY/WX   TEMP    WIND        PRES    VSBY  WAVE
                                AIR SEA DIR/SP/G                  HT/PER
                 (UTC)          (F)     (DEG/KT/KT) (MB)    (MI)  (FT/S)
NY HARB ENTRANCE 0900            41 43  100/ 12/ 14 1024.1
4S FIRE IS       0800               44                N/A           4/12
23SW MTP         0900            41 42  260/ 10/ 12 1023.3          5/11
HUDSON CANYON    0800            41 44  320/  6/  8 1024.0          7/11
EXECUTION ROCKS  0900            42 42  230/  6/  8   N/A
WESTERN LI SOUND 0900            42     230/  8/ 10   N/A           0
CENTRAL LI SOUND 0800            40 42  240/ 10/ 12   N/A           1/ 2
EASTERN LI SOUND NOT AVBL
ROBBINS REEF     0900            41     250/  6/  7   N/A
$$


>>>>>>>>>>>>>>>>>>>>>>>>>>>> KEY <<<<<<<<<<<<<<<<<<<<<<<<<<<
>                                                          <
>     SKY/WX - SKY CONDITION/PRESENT WEATHER               <
>     TMP    - TEMPERATURE IN FAHRENHEIT                   <
>     DP     - DEWPOINT IN FAHRENHEIT                      <
>     RH     - RELATIVE HUMIDITY IN PERCENT                <
>     WIND   - DIRECTION AND SPEED IN MPH                  <
>     PRES   - MEAN SEA LEVEL PRESSURE IN INCHES OF HG     <
>     WCI    - WIND CHILL INDEX                            <
>     VSB    - VISIBILITY IN MILES                         <
>     HX     - HEAT INDEX                                  <
>     TC     - TEMPERATURE IN CELSIUS                      <
>     VRB    - VARIABLE WIND DIRECTION                     <
>                                                          <
>>>>>>>>>>>>>>>>>>>>>>>>>>>> KEY <<<<<<<<<<<<<<<<<<<<<<<<<<<





USA.gov is the U.S. government's official web portal to all federal, state and local government web resources and services.